Year,Month,Day,Hour,Minute,Value (Times are PST for temperature in C)
2016,08,19,00,00,25.30
2016,08,19,00,01,25.20
2016,08,19,00,02,25.20
2016,08,19,00,03,25.20
2016,08,19,00,04,25.20
2016,08,19,00,05,25.10
2016,08,19,00,06,25.10
2016,08,19,00,07,25.10
2016,08,19,00,08,25.10
2016,08,19,00,09,25.00
2016,08,19,00,10,25.00
2016,08,19,00,11,25.00
2016,08,19,00,12,24.90
2016,08,19,00,13,24.90
2016,08,19,00,14,24.90
2016,08,19,00,15,24.90
2016,08,19,00,16,24.90
2016,08,19,00,17,24.80
2016,08,19,00,18,24.80
2016,08,19,00,19,24.80
2016,08,19,00,20,24.90
2016,08,19,00,21,24.90
2016,08,19,00,22,24.90
2016,08,19,00,23,24.90
2016,08,19,00,24,24.90
2016,08,19,00,25,24.90
2016,08,19,00,26,24.90
2016,08,19,00,27,24.90
2016,08,19,00,28,24.90
2016,08,19,00,29,24.90
2016,08,19,00,30,24.90
2016,08,19,00,31,24.90
2016,08,19,00,32,24.80
2016,08,19,00,33,24.80
2016,08,19,00,34,24.80
2016,08,19,00,35,24.80
2016,08,19,00,36,24.80
2016,08,19,00,37,24.80
2016,08,19,00,38,24.70
2016,08,19,00,39,24.70
2016,08,19,00,40,24.70
2016,08,19,00,41,24.60
2016,08,19,00,42,24.60
2016,08,19,00,43,24.60
2016,08,19,00,44,24.60
2016,08,19,00,45,24.50
2016,08,19,00,46,24.50
2016,08,19,00,47,24.50
2016,08,19,00,48,24.50
2016,08,19,00,49,24.50
2016,08,19,00,50,24.50
2016,08,19,00,51,24.40
2016,08,19,00,52,24.40
2016,08,19,00,53,24.40
2016,08,19,00,54,24.40
2016,08,19,00,55,24.40
2016,08,19,00,56,24.40
2016,08,19,00,57,24.40
2016,08,19,00,58,24.40
2016,08,19,00,59,24.30
2016,08,19,01,00,24.40
2016,08,19,01,01,24.40
2016,08,19,01,02,24.40
2016,08,19,01,03,24.40
2016,08,19,01,04,24.30
2016,08,19,01,05,24.30
2016,08,19,01,06,24.30
2016,08,19,01,07,24.40
2016,08,19,01,08,24.40
2016,08,19,01,09,24.40
2016,08,19,01,10,24.40
2016,08,19,01,11,24.40
2016,08,19,01,12,24.40
2016,08,19,01,13,24.40
2016,08,19,01,14,24.40
2016,08,19,01,15,24.40
2016,08,19,01,16,24.40
2016,08,19,01,17,24.40
2016,08,19,01,18,24.40
2016,08,19,01,19,24.50
2016,08,19,01,20,24.50
2016,08,19,01,21,24.50
2016,08,19,01,22,24.50
2016,08,19,01,23,24.40
2016,08,19,01,24,24.40
2016,08,19,01,25,24.40
2016,08,19,01,26,24.40
2016,08,19,01,27,24.40
2016,08,19,01,28,24.40
2016,08,19,01,29,24.40
2016,08,19,01,30,24.30
2016,08,19,01,31,24.30
2016,08,19,01,32,24.30
2016,08,19,01,33,24.30
2016,08,19,01,34,24.30
2016,08,19,01,35,24.20
2016,08,19,01,36,24.20
2016,08,19,01,37,24.20
2016,08,19,01,38,24.20
2016,08,19,01,39,24.20
2016,08,19,01,40,24.10
2016,08,19,01,41,24.10
2016,08,19,01,42,24.00
2016,08,19,01,43,23.90
2016,08,19,01,44,23.90
2016,08,19,01,45,23.80
2016,08,19,01,46,23.80
2016,08,19,01,47,23.80
2016,08,19,01,48,23.80
2016,08,19,01,49,23.70
2016,08,19,01,50,23.70
2016,08,19,01,51,23.70
2016,08,19,01,52,23.70
2016,08,19,01,53,23.70
2016,08,19,01,54,23.70
2016,08,19,01,55,23.70
2016,08,19,01,56,23.70
2016,08,19,01,57,23.70
2016,08,19,01,58,23.70
2016,08,19,01,59,23.60
2016,08,19,02,00,23.60
2016,08,19,02,01,23.60
2016,08,19,02,02,23.60
2016,08,19,02,03,23.60
2016,08,19,02,04,23.60
2016,08,19,02,05,23.60
2016,08,19,02,06,23.50
2016,08,19,02,07,23.40
2016,08,19,02,08,23.40
2016,08,19,02,09,23.40
2016,08,19,02,10,23.40
2016,08,19,02,11,23.40
2016,08,19,02,12,23.40
2016,08,19,02,13,23.40
2016,08,19,02,14,23.40
2016,08,19,02,15,23.40
2016,08,19,02,16,23.40
2016,08,19,02,17,23.40
2016,08,19,02,18,23.40
2016,08,19,02,19,23.40
2016,08,19,02,20,23.40
2016,08,19,02,21,23.40
2016,08,19,02,22,23.40
2016,08,19,02,23,23.30
2016,08,19,02,24,23.40
2016,08,19,02,25,23.50
2016,08,19,02,26,23.60
2016,08,19,02,27,23.60
2016,08,19,02,28,23.60
2016,08,19,02,29,23.60
2016,08,19,02,30,23.60
2016,08,19,02,31,23.60
2016,08,19,02,32,23.60
2016,08,19,02,33,23.60
2016,08,19,02,34,23.60
2016,08,19,02,35,23.60
2016,08,19,02,36,23.60
2016,08,19,02,37,23.60
2016,08,19,02,38,23.60
2016,08,19,02,39,23.60
2016,08,19,02,40,23.60
2016,08,19,02,41,23.60
2016,08,19,02,42,23.60
2016,08,19,02,43,23.60
2016,08,19,02,44,23.60
2016,08,19,02,45,23.60
2016,08,19,02,46,23.60
2016,08,19,02,47,23.60
2016,08,19,02,48,23.60
2016,08,19,02,49,23.60
2016,08,19,02,50,23.50
2016,08,19,02,51,23.40
2016,08,19,02,52,23.30
2016,08,19,02,53,23.30
2016,08,19,02,54,23.30
2016,08,19,02,55,23.20
2016,08,19,02,56,23.10
2016,08,19,02,57,23.10
2016,08,19,02,58,22.90
2016,08,19,02,59,22.90
2016,08,19,03,00,22.90
2016,08,19,03,01,22.80
2016,08,19,03,02,22.80
2016,08,19,03,03,22.70
2016,08,19,03,04,22.70
2016,08,19,03,05,22.60
2016,08,19,03,06,22.60
2016,08,19,03,07,22.60
2016,08,19,03,08,22.50
2016,08,19,03,09,22.50
2016,08,19,03,10,22.50
2016,08,19,03,11,22.40
2016,08,19,03,12,22.40
2016,08,19,03,13,22.40
2016,08,19,03,14,22.40
2016,08,19,03,15,22.40
2016,08,19,03,16,22.40
2016,08,19,03,17,22.40
2016,08,19,03,18,22.40
2016,08,19,03,19,22.40
2016,08,19,03,20,22.30
2016,08,19,03,21,22.30
2016,08,19,03,22,22.30
2016,08,19,03,23,22.30
2016,08,19,03,24,22.30
2016,08,19,03,25,22.30
2016,08,19,03,26,22.30
2016,08,19,03,27,22.20
2016,08,19,03,28,22.20
2016,08,19,03,29,22.20
2016,08,19,03,30,22.20
2016,08,19,03,31,22.20
2016,08,19,03,32,22.10
2016,08,19,03,33,22.10
2016,08,19,03,34,22.10
2016,08,19,03,35,22.00
2016,08,19,03,36,22.00
2016,08,19,03,37,22.00
2016,08,19,03,38,21.90
2016,08,19,03,39,21.80
2016,08,19,03,40,21.80
2016,08,19,03,41,21.70
2016,08,19,03,42,21.70
2016,08,19,03,43,21.60
2016,08,19,03,44,21.60
2016,08,19,03,45,21.60
2016,08,19,03,46,21.60
2016,08,19,03,47,21.50
2016,08,19,03,48,21.40
2016,08,19,03,49,21.40
2016,08,19,03,50,21.30
2016,08,19,03,51,21.30
2016,08,19,03,52,21.30
2016,08,19,03,53,21.30
2016,08,19,03,54,21.20
2016,08,19,03,55,21.20
2016,08,19,03,56,21.10
2016,08,19,03,57,21.10
2016,08,19,03,58,21.10
2016,08,19,03,59,21.00
2016,08,19,04,00,21.00
2016,08,19,04,01,21.00
2016,08,19,04,02,21.00
2016,08,19,04,03,20.90
2016,08,19,04,04,20.90
2016,08,19,04,05,20.90
2016,08,19,04,06,20.90
2016,08,19,04,07,20.90
2016,08,19,04,08,20.80
2016,08,19,04,09,20.90
2016,08,19,04,10,20.80
2016,08,19,04,11,20.80
2016,08,19,04,12,20.90
2016,08,19,04,13,20.90
2016,08,19,04,14,20.90
2016,08,19,04,15,20.90
2016,08,19,04,16,21.00
2016,08,19,04,17,21.00
2016,08,19,04,18,21.00
2016,08,19,04,19,21.00
2016,08,19,04,20,21.00
2016,08,19,04,21,21.10
2016,08,19,04,22,21.00
2016,08,19,04,23,21.00
2016,08,19,04,24,21.00
2016,08,19,04,25,21.00
2016,08,19,04,26,21.00
2016,08,19,04,27,21.00
2016,08,19,04,28,21.00
2016,08,19,04,29,20.90
2016,08,19,04,30,20.90
2016,08,19,04,31,20.90
2016,08,19,04,32,20.90
2016,08,19,04,33,20.80
2016,08,19,04,34,20.80
2016,08,19,04,35,20.80
2016,08,19,04,36,20.80
2016,08,19,04,37,20.80
2016,08,19,04,38,20.80
2016,08,19,04,39,20.80
2016,08,19,04,40,20.80
2016,08,19,04,41,20.80
2016,08,19,04,42,20.90
2016,08,19,04,43,20.90
2016,08,19,04,44,20.90
2016,08,19,04,45,20.90
2016,08,19,04,46,20.90
2016,08,19,04,47,20.90
2016,08,19,04,48,20.90
2016,08,19,04,49,20.90
2016,08,19,04,50,20.90
2016,08,19,04,51,20.90
2016,08,19,04,52,21.00
2016,08,19,04,53,21.00
2016,08,19,04,54,20.90
2016,08,19,04,55,20.90
2016,08,19,04,56,20.90
2016,08,19,04,57,20.90
2016,08,19,04,58,20.90
2016,08,19,04,59,20.90
2016,08,19,05,00,20.90
2016,08,19,05,01,20.90
2016,08,19,05,02,20.90
2016,08,19,05,03,20.90
2016,08,19,05,04,20.90
2016,08,19,05,05,20.90
2016,08,19,05,06,20.90
2016,08,19,05,07,20.90
2016,08,19,05,08,20.90
2016,08,19,05,09,21.00
2016,08,19,05,10,21.00
2016,08,19,05,11,21.00
2016,08,19,05,12,21.00
2016,08,19,05,13,21.00
2016,08,19,05,14,21.00
2016,08,19,05,15,21.00
2016,08,19,05,16,21.00
2016,08,19,05,17,21.00
2016,08,19,05,18,21.00
2016,08,19,05,19,21.00
2016,08,19,05,20,21.00
2016,08,19,05,21,21.00
2016,08,19,05,22,21.00
2016,08,19,05,23,21.00
2016,08,19,05,24,21.00
2016,08,19,05,25,21.00
2016,08,19,05,26,21.00
2016,08,19,05,27,21.00
2016,08,19,05,28,21.00
2016,08,19,05,29,21.00
2016,08,19,05,30,21.00
2016,08,19,05,31,21.00
2016,08,19,05,32,21.00
2016,08,19,05,33,21.10
2016,08,19,05,34,21.10
2016,08,19,05,35,21.20
2016,08,19,05,36,21.20
2016,08,19,05,37,21.30
2016,08,19,05,38,21.30
2016,08,19,05,39,21.30
2016,08,19,05,40,21.30
2016,08,19,05,41,21.40
2016,08,19,05,42,21.40
2016,08,19,05,43,21.40
2016,08,19,05,44,21.60
2016,08,19,05,45,21.60
2016,08,19,05,46,21.60
2016,08,19,05,47,21.60
2016,08,19,05,48,21.60
2016,08,19,05,49,21.60
2016,08,19,05,50,21.60
2016,08,19,05,51,21.60
2016,08,19,05,52,21.60
2016,08,19,05,53,21.60
2016,08,19,05,54,21.60
2016,08,19,05,55,21.60
2016,08,19,05,56,21.60
2016,08,19,05,57,21.60
2016,08,19,05,58,21.60
2016,08,19,05,59,21.60
2016,08,19,06,00,21.60
2016,08,19,06,01,21.60
2016,08,19,06,02,21.60
2016,08,19,06,03,21.60
2016,08,19,06,04,21.70
2016,08,19,06,05,21.70
2016,08,19,06,06,21.70
2016,08,19,06,07,21.70
2016,08,19,06,08,21.70
2016,08,19,06,09,21.70
2016,08,19,06,10,21.80
2016,08,19,06,11,21.80
2016,08,19,06,12,21.80
2016,08,19,06,13,21.80
2016,08,19,06,14,21.90
2016,08,19,06,15,21.90
2016,08,19,06,16,21.90
2016,08,19,06,17,22.00
2016,08,19,06,18,22.00
2016,08,19,06,19,22.00
2016,08,19,06,20,22.00
2016,08,19,06,21,22.00
2016,08,19,06,22,22.10
2016,08,19,06,23,22.10
2016,08,19,06,24,22.10
2016,08,19,06,25,22.10
2016,08,19,06,26,22.10
2016,08,19,06,27,22.10
2016,08,19,06,28,22.10
2016,08,19,06,29,22.10
2016,08,19,06,30,22.10
2016,08,19,06,31,22.10
2016,08,19,06,32,22.10
2016,08,19,06,33,22.10
2016,08,19,06,34,22.10
2016,08,19,06,35,22.10
2016,08,19,06,36,22.10
2016,08,19,06,37,22.10
2016,08,19,06,38,22.10
2016,08,19,06,39,22.20
2016,08,19,06,40,22.20
2016,08,19,06,41,22.20
2016,08,19,06,42,22.20
2016,08,19,06,43,22.30
2016,08,19,06,44,22.30
2016,08,19,06,45,22.30
2016,08,19,06,46,22.30
2016,08,19,06,47,22.30
2016,08,19,06,48,22.30
2016,08,19,06,49,22.30
2016,08,19,06,50,22.30
2016,08,19,06,51,22.20
2016,08,19,06,52,22.20
2016,08,19,06,53,22.20
2016,08,19,06,54,22.20
2016,08,19,06,55,22.20
2016,08,19,06,56,22.10
2016,08,19,06,57,22.10
2016,08,19,06,58,22.10
2016,08,19,06,59,22.00
2016,08,19,07,00,22.00
2016,08,19,07,01,22.00
2016,08,19,07,02,22.00
2016,08,19,07,03,22.00
2016,08,19,07,04,22.00
2016,08,19,07,05,22.10
2016,08,19,07,06,22.10
2016,08,19,07,07,22.20
2016,08,19,07,08,22.20
2016,08,19,07,09,22.30
2016,08,19,07,10,22.30
2016,08,19,07,11,22.40
2016,08,19,07,12,22.40
2016,08,19,07,13,22.50
2016,08,19,07,14,22.60
2016,08,19,07,15,22.60
2016,08,19,07,16,22.70
2016,08,19,07,17,22.70
2016,08,19,07,18,22.80
2016,08,19,07,19,22.80
2016,08,19,07,20,22.80
2016,08,19,07,21,22.90
2016,08,19,07,22,22.90
2016,08,19,07,23,22.90
2016,08,19,07,24,23.10
2016,08,19,07,25,23.10
2016,08,19,07,26,23.10
2016,08,19,07,27,23.10
2016,08,19,07,28,23.10
2016,08,19,07,29,23.10
2016,08,19,07,30,23.10
2016,08,19,07,31,23.20
2016,08,19,07,32,23.20
2016,08,19,07,33,23.30
2016,08,19,07,34,23.30
2016,08,19,07,35,23.30
2016,08,19,07,36,23.30
2016,08,19,07,37,23.30
2016,08,19,07,38,23.20
2016,08,19,07,39,23.20
2016,08,19,07,40,23.20
2016,08,19,07,41,23.20
2016,08,19,07,42,23.20
2016,08,19,07,43,23.20
2016,08,19,07,44,23.20
2016,08,19,07,45,23.20
2016,08,19,07,46,23.20
2016,08,19,07,47,23.20
2016,08,19,07,48,23.20
2016,08,19,07,49,23.30
2016,08,19,07,50,23.30
2016,08,19,07,51,23.30
2016,08,19,07,52,23.30
2016,08,19,07,53,23.40
2016,08,19,07,54,23.40
2016,08,19,07,55,23.40
2016,08,19,07,56,23.50
2016,08,19,07,57,23.60
2016,08,19,07,58,23.60
2016,08,19,07,59,23.60
2016,08,19,08,00,23.60
2016,08,19,08,01,23.60
2016,08,19,08,02,23.60
2016,08,19,08,03,23.60
2016,08,19,08,04,23.60
2016,08,19,08,05,23.60
2016,08,19,08,06,23.50
2016,08,19,08,07,23.40
2016,08,19,08,08,23.40
2016,08,19,08,09,23.40
2016,08,19,08,10,23.40
2016,08,19,08,11,23.40
2016,08,19,08,12,23.40
2016,08,19,08,13,23.50
2016,08,19,08,14,23.60
2016,08,19,08,15,23.60
2016,08,19,08,16,23.60
2016,08,19,08,17,23.60
2016,08,19,08,18,23.70
2016,08,19,08,19,23.70
2016,08,19,08,20,23.70
2016,08,19,08,21,23.70
2016,08,19,08,22,23.80
2016,08,19,08,23,23.80
2016,08,19,08,24,23.80
2016,08,19,08,25,23.90
2016,08,19,08,26,23.90
2016,08,19,08,27,24.00
2016,08,19,08,28,24.10
2016,08,19,08,29,24.10
2016,08,19,08,30,24.10
2016,08,19,08,31,24.10
2016,08,19,08,32,24.10
2016,08,19,08,33,24.20
2016,08,19,08,34,24.20
2016,08,19,08,35,24.20
2016,08,19,08,36,24.20
2016,08,19,08,37,24.20
2016,08,19,08,38,24.20
2016,08,19,08,39,24.20
2016,08,19,08,40,24.20
2016,08,19,08,41,24.30
2016,08,19,08,42,24.30
2016,08,19,08,43,24.30
2016,08,19,08,44,24.30
2016,08,19,08,45,24.30
2016,08,19,08,46,24.40
2016,08,19,08,47,24.40
2016,08,19,08,48,24.40
2016,08,19,08,49,24.50
2016,08,19,08,50,24.50
2016,08,19,08,51,24.60
2016,08,19,08,52,24.70
2016,08,19,08,53,24.80
2016,08,19,08,54,24.90
2016,08,19,08,55,24.90
2016,08,19,08,56,25.00
2016,08,19,08,57,25.00
2016,08,19,08,58,25.10
2016,08,19,08,59,25.20
2016,08,19,09,00,25.20
2016,08,19,09,01,25.20
2016,08,19,09,02,25.20
2016,08,19,09,03,25.30
2016,08,19,09,04,25.30
2016,08,19,09,05,25.40
2016,08,19,09,06,25.50
2016,08,19,09,07,25.60
2016,08,19,09,08,25.70
2016,08,19,09,09,25.80
2016,08,19,09,10,25.80
2016,08,19,09,11,25.90
2016,08,19,09,12,25.90
2016,08,19,09,13,26.00
2016,08,19,09,14,26.00
2016,08,19,09,15,26.10
2016,08,19,09,16,26.10
2016,08,19,09,17,26.20
2016,08,19,09,18,26.20
2016,08,19,09,19,26.30
2016,08,19,09,20,26.40
2016,08,19,09,21,26.50
2016,08,19,09,22,26.60
2016,08,19,09,23,26.60
2016,08,19,09,24,26.60
2016,08,19,09,25,26.70
2016,08,19,09,26,26.80
2016,08,19,09,27,26.90
2016,08,19,09,28,26.90
2016,08,19,09,29,27.10
2016,08,19,09,30,27.10
2016,08,19,09,31,27.10
2016,08,19,09,32,27.10
2016,08,19,09,33,27.10
2016,08,19,09,34,27.10
2016,08,19,09,35,27.10
2016,08,19,09,36,27.10
2016,08,19,09,37,27.10
2016,08,19,09,38,27.10
2016,08,19,09,39,27.10
2016,08,19,09,40,27.10
2016,08,19,09,41,27.20
2016,08,19,09,42,27.20
2016,08,19,09,43,27.30
2016,08,19,09,44,27.30
2016,08,19,09,45,27.30
2016,08,19,09,46,27.40
2016,08,19,09,47,27.40
2016,08,19,09,48,27.40
2016,08,19,09,49,27.40
2016,08,19,09,50,27.40
2016,08,19,09,51,27.40
2016,08,19,09,52,27.40
2016,08,19,09,53,27.40
2016,08,19,09,54,27.40
2016,08,19,09,55,27.30
2016,08,19,09,56,27.30
2016,08,19,09,57,27.30
2016,08,19,09,58,27.30
2016,08,19,09,59,27.30
2016,08,19,10,00,27.30
2016,08,19,10,01,27.30
2016,08,19,10,02,27.30
2016,08,19,10,03,27.20
2016,08,19,10,04,27.20
2016,08,19,10,05,27.20
2016,08,19,10,06,27.20
2016,08,19,10,07,27.20
2016,08,19,10,08,27.20
2016,08,19,10,09,27.20
2016,08,19,10,10,27.20
2016,08,19,10,11,27.30
2016,08,19,10,12,27.30
2016,08,19,10,13,27.30
2016,08,19,10,14,27.40
2016,08,19,10,15,27.50
2016,08,19,10,16,27.60
2016,08,19,10,17,27.70
2016,08,19,10,18,27.70
2016,08,19,10,19,27.80
2016,08,19,10,20,27.80
2016,08,19,10,21,27.80
2016,08,19,10,22,27.80
2016,08,19,10,23,27.80
2016,08,19,10,24,27.80
2016,08,19,10,25,27.80
2016,08,19,10,26,27.80
2016,08,19,10,27,27.90
2016,08,19,10,28,27.90
2016,08,19,10,29,27.90
2016,08,19,10,30,27.90
2016,08,19,10,31,27.90
2016,08,19,10,32,28.00
2016,08,19,10,33,28.00
2016,08,19,10,34,28.00
2016,08,19,10,35,28.10
2016,08,19,10,36,28.20
2016,08,19,10,37,28.30
2016,08,19,10,38,28.40
2016,08,19,10,39,28.50
2016,08,19,10,40,28.60
2016,08,19,10,41,28.60
2016,08,19,10,42,28.70
2016,08,19,10,43,28.60
2016,08,19,10,44,28.60
2016,08,19,10,45,28.60
2016,08,19,10,46,28.70
2016,08,19,10,47,28.70
2016,08,19,10,48,28.80
2016,08,19,10,49,28.90
2016,08,19,10,50,28.90
2016,08,19,10,51,29.10
2016,08,19,10,52,29.10
2016,08,19,10,53,29.10
2016,08,19,10,54,29.10
2016,08,19,10,55,29.20
2016,08,19,10,56,29.20
2016,08,19,10,57,29.30
2016,08,19,10,58,29.20
2016,08,19,10,59,29.20
2016,08,19,11,00,29.20
2016,08,19,11,01,29.10
2016,08,19,11,02,29.20
2016,08,19,11,03,29.20
2016,08,19,11,04,29.30
2016,08,19,11,05,29.30
2016,08,19,11,06,29.40
2016,08,19,11,07,29.40
2016,08,19,11,08,29.50
2016,08,19,11,09,29.50
2016,08,19,11,10,29.60
2016,08,19,11,11,29.70
2016,08,19,11,12,29.70
2016,08,19,11,13,29.70
2016,08,19,11,14,29.70
2016,08,19,11,15,29.70
2016,08,19,11,16,29.60
2016,08,19,11,17,29.60
2016,08,19,11,18,29.60
2016,08,19,11,19,29.70
2016,08,19,11,20,29.70
2016,08,19,11,21,29.70
2016,08,19,11,22,29.70
2016,08,19,11,23,29.70
2016,08,19,11,24,29.70
2016,08,19,11,25,29.60
2016,08,19,11,26,29.60
2016,08,19,11,27,29.60
2016,08,19,11,28,29.50
2016,08,19,11,29,29.50
2016,08,19,11,30,29.50
2016,08,19,11,31,29.50
2016,08,19,11,32,29.50
2016,08,19,11,33,29.50
2016,08,19,11,34,29.50
2016,08,19,11,35,29.50
2016,08,19,11,36,29.60
2016,08,19,11,37,29.70
2016,08,19,11,38,29.80
2016,08,19,11,39,29.90
2016,08,19,11,40,30.00
2016,08,19,11,41,30.10
2016,08,19,11,42,30.10
2016,08,19,11,43,30.10
2016,08,19,11,44,30.10
2016,08,19,11,45,30.10
2016,08,19,11,46,30.10
2016,08,19,11,47,30.20
2016,08,19,11,48,30.20
2016,08,19,11,49,30.20
2016,08,19,11,50,30.20
2016,08,19,11,51,30.20
2016,08,19,11,52,30.30
2016,08,19,11,53,30.30
2016,08,19,11,54,30.40
2016,08,19,11,55,30.40
2016,08,19,11,56,30.40
2016,08,19,11,57,30.40
2016,08,19,11,58,30.60
2016,08,19,11,59,30.40
2016,08,19,12,00,30.40
2016,08,19,12,01,30.30
2016,08,19,12,02,30.30
2016,08,19,12,03,30.40
2016,08,19,12,04,30.50
2016,08,19,12,05,30.60
2016,08,19,12,06,30.60
2016,08,19,12,07,30.70
2016,08,19,12,08,30.70
2016,08,19,12,09,30.80
2016,08,19,12,10,30.80
2016,08,19,12,11,30.90
2016,08,19,12,12,31.00
2016,08,19,12,13,31.10
2016,08,19,12,14,31.20
2016,08,19,12,15,31.20
2016,08,19,12,16,31.20
2016,08,19,12,17,31.10
2016,08,19,12,18,31.10
2016,08,19,12,19,31.10
2016,08,19,12,20,31.10
2016,08,19,12,21,31.10
2016,08,19,12,22,31.10
2016,08,19,12,23,31.10
2016,08,19,12,24,31.10
2016,08,19,12,25,31.10
2016,08,19,12,26,31.10
2016,08,19,12,27,31.20
2016,08,19,12,28,31.20
2016,08,19,12,29,31.20
2016,08,19,12,30,31.20
2016,08,19,12,31,31.20
2016,08,19,12,32,31.30
2016,08,19,12,33,31.30
2016,08,19,12,34,31.40
2016,08,19,12,35,31.50
2016,08,19,12,36,31.60
2016,08,19,12,37,31.70
2016,08,19,12,38,31.70
2016,08,19,12,39,31.70
2016,08,19,12,40,31.60
2016,08,19,12,41,31.60
2016,08,19,12,42,31.50
2016,08,19,12,43,31.30
2016,08,19,12,44,31.20
2016,08,19,12,45,31.20
2016,08,19,12,46,31.20
2016,08,19,12,47,31.20
2016,08,19,12,48,31.20
2016,08,19,12,49,31.30
2016,08,19,12,50,31.40
2016,08,19,12,51,31.50
2016,08,19,12,52,31.60
2016,08,19,12,53,31.60
2016,08,19,12,54,31.50
2016,08,19,12,55,31.40
2016,08,19,12,56,31.30
2016,08,19,12,57,31.20
2016,08,19,12,58,31.20
2016,08,19,12,59,31.20
2016,08,19,13,00,31.20
2016,08,19,13,01,31.30
2016,08,19,13,02,31.40
2016,08,19,13,03,31.30
2016,08,19,13,04,31.30
2016,08,19,13,05,31.20
2016,08,19,13,06,31.20
2016,08,19,13,07,31.30
2016,08,19,13,08,31.30
2016,08,19,13,09,31.30
2016,08,19,13,10,31.40
2016,08,19,13,11,31.40
2016,08,19,13,12,31.50
2016,08,19,13,13,31.60
2016,08,19,13,14,31.60
2016,08,19,13,15,31.60
2016,08,19,13,16,31.60
2016,08,19,13,17,31.60
2016,08,19,13,18,31.70
2016,08,19,13,19,31.80
2016,08,19,13,20,31.80
2016,08,19,13,21,31.90
2016,08,19,13,22,31.80
2016,08,19,13,23,31.80
2016,08,19,13,24,31.80
2016,08,19,13,25,31.90
2016,08,19,13,26,31.90
2016,08,19,13,27,31.90
2016,08,19,13,28,32.00
2016,08,19,13,29,32.10
2016,08,19,13,30,32.10
2016,08,19,13,31,32.10
2016,08,19,13,32,32.20
2016,08,19,13,33,32.10
2016,08,19,13,34,32.10
2016,08,19,13,35,32.10
2016,08,19,13,36,32.10
2016,08,19,13,37,32.10
2016,08,19,13,38,32.10
2016,08,19,13,39,32.10
2016,08,19,13,40,32.10
2016,08,19,13,41,32.20
2016,08,19,13,42,32.30
2016,08,19,13,43,32.40
2016,08,19,13,44,32.50
2016,08,19,13,45,32.60
2016,08,19,13,46,32.60
2016,08,19,13,47,32.60
2016,08,19,13,48,32.60
2016,08,19,13,49,32.60
2016,08,19,13,50,32.60
2016,08,19,13,51,32.60
2016,08,19,13,52,32.60
2016,08,19,13,53,32.50
2016,08,19,13,54,32.50
2016,08,19,13,55,32.50
2016,08,19,13,56,32.50
2016,08,19,13,57,32.50
2016,08,19,13,58,32.60
2016,08,19,13,59,32.60
2016,08,19,14,00,32.60
2016,08,19,14,01,32.60
2016,08,19,14,02,32.60
2016,08,19,14,03,32.60
2016,08,19,14,04,32.60
2016,08,19,14,05,32.60
2016,08,19,14,06,32.60
2016,08,19,14,07,32.60
2016,08,19,14,08,32.60
2016,08,19,14,09,32.60
2016,08,19,14,10,32.60
2016,08,19,14,11,32.60
2016,08,19,14,12,32.60
2016,08,19,14,13,32.70
2016,08,19,14,14,32.80
2016,08,19,14,15,32.80
2016,08,19,14,16,32.60
2016,08,19,14,17,32.60
2016,08,19,14,18,32.60
2016,08,19,14,19,32.50
2016,08,19,14,20,32.50
2016,08,19,14,21,32.40
2016,08,19,14,22,32.40
2016,08,19,14,23,32.40
2016,08,19,14,24,32.40
2016,08,19,14,25,32.50
2016,08,19,14,26,32.50
2016,08,19,14,27,32.50
2016,08,19,14,28,32.60
2016,08,19,14,29,32.60
2016,08,19,14,30,32.70
2016,08,19,14,31,32.80
2016,08,19,14,32,32.80
2016,08,19,14,33,32.80
2016,08,19,14,34,32.80
2016,08,19,14,35,32.80
2016,08,19,14,36,32.80
2016,08,19,14,37,32.80
2016,08,19,14,38,32.80
2016,08,19,14,39,32.80
2016,08,19,14,40,32.80
2016,08,19,14,41,32.80
2016,08,19,14,42,32.80
2016,08,19,14,43,32.90
2016,08,19,14,44,33.00
2016,08,19,14,45,33.00
2016,08,19,14,46,33.10
2016,08,19,14,47,33.20
2016,08,19,14,48,33.20
2016,08,19,14,49,33.40
2016,08,19,14,50,33.40
2016,08,19,14,51,33.50
2016,08,19,14,52,33.50
2016,08,19,14,53,33.50
2016,08,19,14,54,33.50
2016,08,19,14,55,33.50
2016,08,19,14,56,33.50
2016,08,19,14,57,33.50
2016,08,19,14,58,33.20
2016,08,19,14,59,33.00
2016,08,19,15,00,33.00
2016,08,19,15,01,32.90
2016,08,19,15,02,32.80
2016,08,19,15,03,32.60
2016,08,19,15,04,32.50
2016,08,19,15,05,32.60
2016,08,19,15,06,32.60
2016,08,19,15,07,32.60
2016,08,19,15,08,32.60
2016,08,19,15,09,32.60
2016,08,19,15,10,32.60
2016,08,19,15,11,32.70
2016,08,19,15,12,32.80
2016,08,19,15,13,32.80
2016,08,19,15,14,32.90
2016,08,19,15,15,32.90
2016,08,19,15,16,32.90
2016,08,19,15,17,32.90
2016,08,19,15,18,32.90
2016,08,19,15,19,32.80
2016,08,19,15,20,32.70
2016,08,19,15,21,32.60
2016,08,19,15,22,32.80
2016,08,19,15,23,32.80
2016,08,19,15,24,32.80
2016,08,19,15,25,32.80
2016,08,19,15,26,32.80
2016,08,19,15,27,32.80
2016,08,19,15,28,32.80
2016,08,19,15,29,32.80
2016,08,19,15,30,32.80
2016,08,19,15,31,32.80
2016,08,19,15,32,32.80
2016,08,19,15,33,32.80
2016,08,19,15,34,32.80
2016,08,19,15,35,32.80
2016,08,19,15,36,32.90
2016,08,19,15,37,32.90
2016,08,19,15,38,33.00
2016,08,19,15,39,33.00
2016,08,19,15,40,33.10
2016,08,19,15,41,33.10
2016,08,19,15,42,33.10
2016,08,19,15,43,33.10
2016,08,19,15,44,32.90
2016,08,19,15,45,32.60
2016,08,19,15,46,32.50
2016,08,19,15,47,32.40
2016,08,19,15,48,32.50
2016,08,19,15,49,32.50
2016,08,19,15,50,32.60
2016,08,19,15,51,32.60
2016,08,19,15,52,32.60
2016,08,19,15,53,32.60
2016,08,19,15,54,32.60
2016,08,19,15,55,32.60
2016,08,19,15,56,32.60
2016,08,19,15,57,32.60
2016,08,19,15,58,32.60
2016,08,19,15,59,32.60
2016,08,19,16,00,32.50
2016,08,19,16,01,32.30
2016,08,19,16,02,32.20
2016,08,19,16,03,32.10
2016,08,19,16,04,32.10
2016,08,19,16,05,32.00
2016,08,19,16,06,31.90
2016,08,19,16,07,31.90
2016,08,19,16,08,31.80
2016,08,19,16,09,31.80
2016,08,19,16,10,31.70
2016,08,19,16,11,31.70
2016,08,19,16,12,31.60
2016,08,19,16,13,31.60
2016,08,19,16,14,31.50
2016,08,19,16,15,31.40
2016,08,19,16,16,31.40
2016,08,19,16,17,31.40
2016,08,19,16,18,31.30
2016,08,19,16,19,31.30
2016,08,19,16,20,31.30
2016,08,19,16,21,31.20
2016,08,19,16,22,31.20
2016,08,19,16,23,31.20
2016,08,19,16,24,31.10
2016,08,19,16,25,31.10
2016,08,19,16,26,31.00
2016,08,19,16,27,31.00
2016,08,19,16,28,30.90
2016,08,19,16,29,30.90
2016,08,19,16,30,30.90
2016,08,19,16,31,30.90
2016,08,19,16,32,30.90
2016,08,19,16,33,30.90
2016,08,19,16,34,30.90
2016,08,19,16,35,30.90
2016,08,19,16,36,30.80
2016,08,19,16,37,30.80
2016,08,19,16,38,30.80
2016,08,19,16,39,30.70
2016,08,19,16,40,30.70
2016,08,19,16,41,30.70
2016,08,19,16,42,30.60
2016,08,19,16,43,30.60
2016,08,19,16,44,30.60
2016,08,19,16,45,30.60
2016,08,19,16,46,30.60
2016,08,19,16,47,30.60
2016,08,19,16,48,30.50
2016,08,19,16,49,30.40
2016,08,19,16,50,30.40
2016,08,19,16,51,30.40
2016,08,19,16,52,30.40
2016,08,19,16,53,30.40
2016,08,19,16,54,30.60
2016,08,19,16,55,30.60
2016,08,19,16,56,30.60
2016,08,19,16,57,30.60
2016,08,19,16,58,30.60
2016,08,19,16,59,30.60
2016,08,19,17,00,30.60
2016,08,19,17,01,30.60
2016,08,19,17,02,30.50
2016,08,19,17,03,30.40
2016,08,19,17,04,30.40
2016,08,19,17,05,30.40
2016,08,19,17,06,30.40
2016,08,19,17,07,30.40
2016,08,19,17,08,30.40
2016,08,19,17,09,30.30
2016,08,19,17,10,30.30
2016,08,19,17,11,30.20
2016,08,19,17,12,30.20
2016,08,19,17,13,30.20
2016,08,19,17,14,30.20
2016,08,19,17,15,30.20
2016,08,19,17,16,30.10
2016,08,19,17,17,30.10
2016,08,19,17,18,30.10
2016,08,19,17,19,30.00